Algona, IA

11:20 PM CST on January 19, 2018 (GMT -0600)
Algona Municipal

Weather History for KAXA - November, 2011

Change the Weather History Date:

Saturday, November 12, 2011

  Actual Average Record
Temperature  
Mean Temperature 44 °F -  
Max Temperature 57 °F 44 °F 66 °F (1999)
Min Temperature 30 °F 28 °F 5 °F (2013)
Degree Days  
Heating Degree Days 22    
Moisture  
Dew Point 25 °F    
Average Humidity 52    
Maximum Humidity 65    
Minimum Humidity 33    
Precipitation  
Precipitation 0.00 in - - ()
Sea Level Pressure  
Sea Level Pressure 29.53 in    
Wind  
Wind Speed 12 mph (South)    
Max Wind Speed 22 mph    
Max Gust Speed 26 mph    
Visibility 10 miles    
Events      
Averages and records for this station are not official NWS values.
T = Trace of Precipitation, MM = Missing Value Source: NWS Daily Summary

Daily Weather History Graph

Daily Weather History Graph

Search for Another Location

Airport or City:

Trip Planner

Search our weather history database for the weather conditions in past years. The results will help you decide how hot, cold, wet, or windy it might be!

Date:

Astronomy

Nov. 12, 2011 Rise Set
Actual Time 7:05 AM CST 4:56 PM CST
Civil Twilight 6:35 AM CST 5:26 PM CST
Nautical Twilight 6:00 AM CST 6:00 PM CST
Astronomical Twilight 5:27 AM CST 6:34 PM CST
Moon 6:09 PM CST (11/12) 8:51 AM CST (11/12)
Length of Visible Light 10h 51m
Length of Day
9h 50m
Full, 97% of the Moon is Illuminated
Nov 12
Full
Nov 18
Last Quarter
Nov 25
New
Dec 2
First Quarter
Dec 10
Full

Hourly Weather History & Observations

Time (CST) Temp. Windchill Dew Point Humidity Pressure Visibility Wind Dir Wind Speed Gust Speed Precip Events Conditions
12:15 AM 35.6 °F 27.5 °F 15.8 °F 44% 29.63 in 10.0 mi SSW 11.5 mph - N/A   Clear
12:35 AM 35.6 °F 27.5 °F 15.8 °F 44% 29.63 in 10.0 mi SSW 11.5 mph - N/A   Clear
12:55 AM 35.6 °F 29.2 °F 15.8 °F 44% 29.63 in 10.0 mi SSW 8.1 mph - N/A   Clear
1:15 AM 33.8 °F 24.8 °F 17.6 °F 52% 29.64 in 10.0 mi South 12.7 mph - N/A   Clear
1:35 AM 35.6 °F 27.5 °F 19.4 °F 52% 29.63 in 10.0 mi SSW 11.5 mph - N/A   Clear
1:55 AM 33.8 °F 26.4 °F 17.6 °F 52% 29.63 in 10.0 mi SSW 9.2 mph - N/A   Clear
2:15 AM 33.8 °F 25.8 °F 17.6 °F 52% 29.62 in 10.0 mi SSW 10.4 mph - N/A   Clear
2:35 AM 33.8 °F 27.0 °F 17.6 °F 52% 29.62 in 10.0 mi South 8.1 mph - N/A   Clear
2:55 AM 32.0 °F 26.4 °F 17.6 °F 55% 29.61 in 10.0 mi South 5.8 mph - N/A   Clear
3:15 AM 30.2 °F 23.4 °F 17.6 °F 60% 29.60 in 10.0 mi South 6.9 mph - N/A   Clear
3:35 AM 30.2 °F 22.6 °F 19.4 °F 64% 29.60 in 10.0 mi South 8.1 mph - N/A   Clear
3:55 AM 32.0 °F 23.6 °F 19.4 °F 60% 29.59 in 10.0 mi South 10.4 mph - N/A   Clear
4:15 AM 32.0 °F 23.0 °F 21.2 °F 64% 29.60 in 10.0 mi South 11.5 mph - N/A   Clear
4:35 AM 33.8 °F 25.8 °F 21.2 °F 60% 29.60 in 10.0 mi SSE 10.4 mph - N/A   Clear
4:55 AM 35.6 °F 27.5 °F 21.2 °F 56% 29.59 in 10.0 mi SSE 11.5 mph - N/A   Clear
5:15 AM 33.8 °F 25.3 °F 21.2 °F 60% 29.59 in 10.0 mi South 11.5 mph - N/A   Clear
5:35 AM 32.0 °F 23.6 °F 21.2 °F 64% 29.59 in 10.0 mi South 10.4 mph - N/A   Clear
5:55 AM 32.0 °F 22.5 °F 21.2 °F 64% 29.58 in 10.0 mi South 12.7 mph - N/A   Clear
6:15 AM 33.8 °F 25.8 °F 23.0 °F 65% 29.58 in 10.0 mi South 10.4 mph - N/A   Clear
6:35 AM 33.8 °F 25.3 °F 23.0 °F 65% 29.58 in 10.0 mi South 11.5 mph - N/A   Clear
6:55 AM 33.8 °F 25.8 °F 23.0 °F 65% 29.57 in 10.0 mi SSE 10.4 mph - N/A   Clear
7:15 AM 33.8 °F 25.8 °F 23.0 °F 65% 29.57 in 10.0 mi South 10.4 mph - N/A   Clear
7:35 AM 35.6 °F 27.1 °F 24.8 °F 65% 29.57 in 10.0 mi South 12.7 mph - N/A   Clear
7:55 AM 35.6 °F 26.2 °F 24.8 °F 65% 29.57 in 10.0 mi South 15.0 mph - N/A   Clear
8:15 AM 35.6 °F 26.6 °F 24.8 °F 65% 29.56 in 10.0 mi South 13.8 mph - N/A   Clear
8:35 AM 37.4 °F 29.3 °F 24.8 °F 60% 29.56 in 10.0 mi South 12.7 mph - N/A   Scattered Clouds
8:55 AM 39.2 °F 32.0 °F 26.6 °F 61% 29.56 in 10.0 mi South 11.5 mph - N/A   Scattered Clouds
9:15 AM 42.8 °F 36.6 °F 26.6 °F 53% 29.54 in 10.0 mi SSE 11.5 mph - N/A   Clear
9:35 AM 42.8 °F 36.6 °F 28.4 °F 57% 29.54 in 10.0 mi SSE 11.5 mph - N/A   Clear
9:55 AM 44.6 °F 38.1 °F 28.4 °F 53% 29.54 in 10.0 mi South 13.8 mph - N/A   Clear
10:15 AM 44.6 °F 37.8 °F 28.4 °F 53% 29.54 in 10.0 mi South 15.0 mph - N/A   Clear
10:35 AM 44.6 °F 38.8 °F 28.4 °F 53% 29.55 in 10.0 mi South 11.5 mph - N/A   Clear
10:55 AM 46.4 °F 39.8 °F 30.2 °F 53% 29.54 in 10.0 mi South 16.1 mph - N/A   Clear
11:15 AM 48.2 °F - 30.2 °F 50% 29.54 in 10.0 mi South 16.1 mph - N/A   Clear
11:35 AM 50.0 °F - 30.2 °F 47% 29.53 in 10.0 mi South 15.0 mph - N/A   Clear
11:55 AM 51.8 °F - 32.0 °F 47% 29.51 in 10.0 mi South 13.8 mph - N/A   Clear
12:15 PM 53.6 °F - 30.2 °F 41% 29.50 in 10.0 mi South 16.1 mph - N/A   Clear
12:55 PM 55.4 °F - 30.2 °F 38% 29.47 in 10.0 mi SSE 16.1 mph - N/A   Clear
1:15 PM 55.4 °F - 30.2 °F 38% 29.46 in 10.0 mi South 17.3 mph - N/A   Clear
1:35 PM 57.2 °F - 30.2 °F 36% 29.44 in 10.0 mi SSE 17.3 mph - N/A   Clear
1:55 PM 57.2 °F - 28.4 °F 33% 29.43 in 10.0 mi South 19.6 mph 26.5 mph N/A   Clear
2:15 PM 55.4 °F - 30.2 °F 38% 29.42 in 10.0 mi South 16.1 mph - N/A   Clear
2:35 PM 55.4 °F - 30.2 °F 38% 29.42 in 10.0 mi SSE 16.1 mph 19.6 mph N/A   Clear
2:55 PM 55.4 °F - 30.2 °F 38% 29.41 in 10.0 mi South 20.7 mph 24.2 mph N/A   Clear
3:15 PM 53.6 °F - 30.2 °F 41% 29.41 in 10.0 mi South 18.4 mph - N/A   Clear
3:35 PM 53.6 °F - 30.2 °F 41% 29.40 in 10.0 mi South 17.3 mph 24.2 mph N/A   Clear
3:55 PM 51.8 °F - 30.2 °F 44% 29.40 in 10.0 mi South 18.4 mph 24.2 mph N/A   Clear
4:15 PM 51.8 °F - 30.2 °F 44% 29.39 in 10.0 mi South 17.3 mph - N/A   Clear
4:35 PM 51.8 °F - 30.2 °F 44% 29.39 in 10.0 mi South 17.3 mph 21.9 mph N/A   Clear
4:55 PM 50.0 °F - 30.2 °F 47% 29.39 in 10.0 mi South 17.3 mph 20.7 mph N/A   Clear
5:15 PM 51.8 °F - 30.2 °F 44% 29.38 in 10.0 mi South 21.9 mph 25.3 mph N/A   Clear
5:35 PM 50.0 °F - 30.2 °F 47% 29.37 in 10.0 mi South 16.1 mph - N/A   Clear
5:55 PM 48.2 °F - 30.2 °F 50% 29.38 in 10.0 mi South 16.1 mph - N/A   Clear
6:15 PM 48.2 °F - 30.2 °F 50% 29.38 in 10.0 mi South 13.8 mph - N/A   Clear
6:35 PM 46.4 °F 40.7 °F 30.2 °F 53% 29.37 in 10.0 mi South 12.7 mph - N/A   Clear
7:15 PM 46.4 °F 39.8 °F 30.2 °F 53% 29.36 in 10.0 mi South 16.1 mph - N/A   Clear
7:35 PM 46.4 °F 40.1 °F 30.2 °F 53% 29.35 in 10.0 mi South 15.0 mph - N/A   Clear
7:55 PM 46.4 °F 40.4 °F 30.2 °F 53% 29.34 in 10.0 mi South 13.8 mph - N/A   Clear
8:15 PM 46.4 °F 40.4 °F 30.2 °F 53% 29.33 in 10.0 mi South 13.8 mph - N/A   Clear
8:35 PM 46.4 °F 40.4 °F 30.2 °F 53% 29.33 in 10.0 mi South 13.8 mph - N/A   Clear
8:55 PM 44.6 °F 37.8 °F 30.2 °F 57% 29.32 in 10.0 mi South 15.0 mph - N/A   Clear
9:15 PM 44.6 °F 38.1 °F 30.2 °F 57% 29.31 in 10.0 mi South 13.8 mph - N/A   Clear
9:35 PM 42.8 °F 35.8 °F 30.2 °F 61% 29.31 in 10.0 mi South 13.8 mph - N/A   Clear
9:55 PM 42.8 °F 35.8 °F 30.2 °F 61% 29.31 in 10.0 mi South 13.8 mph - N/A   Clear
10:15 PM 42.8 °F 35.4 °F 30.2 °F 61% 29.29 in 10.0 mi South 15.0 mph - N/A   Clear
10:35 PM 42.8 °F 35.8 °F 30.2 °F 61% 29.28 in 10.0 mi South 13.8 mph - N/A   Clear
10:55 PM 42.8 °F 35.4 °F 30.2 °F 61% 29.27 in 10.0 mi South 15.0 mph - N/A   Clear
11:15 PM 42.8 °F 36.2 °F 30.2 °F 61% 29.26 in 10.0 mi South 12.7 mph - N/A   Clear
11:35 PM 42.8 °F 36.6 °F 30.2 °F 61% 29.26 in 10.0 mi South 11.5 mph - N/A   Clear
11:55 PM 42.8 °F 36.6 °F 30.2 °F 61% 29.26 in 10.0 mi South 11.5 mph - N/A   Clear